1400630433481,0.901071
1400630493481,0.912676
1400630553481,0.909548
1400630613481,0.916957
1400630673481,0.910604
1400630733481,0.909340
1400630793481,0.904699
1400630853481,0.918893
1400630913481,0.911157
1400630973481,0.911227
1400631033481,0.918008
1400631093481,0.911204
1400631153481,0.902660
1400631213481,0.903310
1400631273481,0.911007
1400631333481,0.910162
1400631393481,0.904525
1400631453481,0.905097
1400631513481,0.908950
1400631573481,0.909127
1400631633481,0.905960
1400631693481,0.907248
1400631753481,0.907078
1400631813481,0.907005
1400631873481,0.898290
1400631933481,0.897894
1400631993481,0.902637
1400632053481,0.899236
1400632113481,0.901438
1400632173481,0.900943
1400632233481,0.901712
1400632293481,0.903299
1400632353481,0.905811
1400632413481,0.893940
1400632473481,0.903222
1400632533481,0.901509
1400632593481,0.898185
1400632653481,0.903834
1400632713481,0.893173
1400632773481,0.906191
1400632833481,0.899348
1400632893481,0.897006
1400632953481,0.894817
1400633013481,0.895600
1400633073481,0.904845
1400633133481,0.894650
1400633193481,0.897427
1400633253481,0.897193
1400633313481,0.902250
1400633373481,0.893767
1400633433481,0.894578
1400633493481,0.895605
1400633553481,0.902230
1400633613481,0.894744
1400633673481,0.900515
1400633733481,0.891861
1400633793481,0.894496
1400633853481,0.897425
1400633913481,0.890689
1400633973481,0.894439
1400634033492,0.893985
1400634093492,0.898302
1400634153492,0.899338
1400634213492,0.906034
1400634273492,0.911331
1400634333492,0.915644
1400634393491,0.923974
1400634453491,0.926049
1400634513491,0.936002
1400634573491,0.943949
1400634633492,0.940393
1400634693492,0.933113
1400634753492,0.949638
1400634813492,0.954761
1400634873492,0.956825
1400634933492,0.970294
1400634993492,0.977791
1400635053492,0.975814
1400635113492,0.978479
1400635173492,0.987467
1400635233492,0.995091
1400635293492,0.994769
1400635353492,0.982083
1400635413492,0.979782
1400635473492,0.987438
1400635533492,0.987467
1400635593492,0.990034
1400635653492,0.993400
1400635713492,1.00189
1400635773491,1.00681
1400635833491,0.997656
1400635893491,0.996432
1400635953491,0.982380
1400636013492,0.992951
1400636073492,0.976775
1400636133492,0.993116
1400636193492,0.992804
1400636253492,0.991831
1400636313492,0.994694
1400636373492,0.997149
1400636433492,1.00589
1400636493492,1.01004
1400636553492,0.997319
1400636613492,1.01196
1400636673492,0.996091
1400636733492,1.00023
1400636793492,1.01035
1400636853492,1.00229
1400636913492,1.00766
1400636973492,0.996010
1400637033492,0.997157
1400637093491,1.00033
1400637153491,0.991983
1400637213491,0.993930
1400637273491,0.984996
1400637333492,0.981932
1400637393492,0.985666
1400637453492,0.990508
1400637513492,0.982474
1400637573492,0.971776
1400637633502,0.987441
1400637693502,0.986606
1400637753502,0.978119
1400637813502,0.973798
1400637873502,0.976976
1400637933502,0.971650
1400637993502,0.968691
1400638053502,0.972567
1400638113502,0.978413
1400638173502,0.956367
1400638233502,0.965341
1400638293502,0.965280
1400638353502,0.962734
1400638413502,0.955707
1400638473502,0.946596
1400638533502,0.947709
1400638593502,0.956092
1400638653502,0.941598
1400638713502,0.943999
1400638773502,0.943164
1400638833502,0.947049
1400638893502,0.936419
1400638953502,0.948621
1400639013502,0.936292
1400639073502,0.933956
1400639133502,0.937072
1400639193502,0.935309
1400639253502,0.926020
1400639313502,0.934017
1400639373502,0.929865
1400639433502,0.926902
1400639493502,0.925083
1400639553502,0.919935
1400639613502,0.925818
1400639673502,0.923716
1400639733502,0.932000
1400639793502,0.930461
1400639853502,0.926672
1400639913502,0.924142
1400639973502,0.925317
1400640033502,0.932537
1400640093502,0.922095
1400640153502,0.916992
1400640213502,0.921023
1400640273502,0.913045
1400640333502,0.919839
1400640393502,0.913899
1400640453502,0.914392
1400640513502,0.918372
1400640573502,0.915712
1400640633502,0.918742
1400640693502,0.916415
1400640753502,0.912158
1400640813502,0.910554
1400640873502,0.914229
1400640933502,0.910430
1400640993502,0.917931
1400641053502,0.914057
1400641113502,0.907017
1400641173502,0.910527
1400641233511,0.919798
1400641293511,0.910071
1400641353511,0.918742
1400641413511,0.911783
1400641473511,0.914726
1400641533511,0.913773
1400641593511,0.906225
1400641653511,0.908782
1400641713511,0.918049
1400641773511,0.912482
1400641833511,0.914083
1400641893511,0.944705
1400641953511,0.908860
1400642013511,0.897528
1400642073511,0.911170
1400642133511,0.911368
1400642193511,0.907733
1400642253511,0.905107
1400642313511,0.905264
1400642373511,0.902513
1400642433511,0.907285
1400642493511,0.900441
1400642553511,0.898578
1400642613511,0.900301
1400642673511,0.901016
1400642733511,0.904630
1400642793511,0.904538
1400642853511,0.908615
1400642913511,0.904682
1400642973511,0.899849
1400643033511,0.905422
1400643093511,0.906335
1400643153511,0.893779
1400643213511,0.900691
1400643273511,0.900979
1400643333511,0.904314
1400643393511,0.893438
1400643453511,0.899414
1400643513511,0.901747
1400643573511,0.897037
1400643633511,0.897924
1400643693511,0.896589
1400643753511,0.907105
1400643813511,0.902525
1400643873511,0.904640
1400643933511,0.898846
1400643993511,0.897579
1400644053511,0.902960
1400644113511,0.901091
1400644173511,0.897670
1400644233511,0.903942
1400644293511,0.898380
1400644353511,0.900267
1400644413511,0.900333
1400644473511,0.901808
1400644533511,0.902394
1400644593511,0.895373
1400644653511,0.898517
1400644713511,0.903051
1400644773511,0.899422
1400644833521,0.903346
1400644893521,0.896718
1400644953521,0.902972
1400645013521,0.900565
1400645073521,0.901441
1400645133521,0.904674
1400645193521,0.901008
1400645253521,0.902694
1400645313521,0.904209
1400645373521,0.900517
1400645433521,0.904007
1400645493521,0.905763
1400645553521,0.907485
1400645613521,0.901891
1400645673521,0.903999
1400645733521,0.907607
1400645793521,0.909484
1400645853521,0.907682
1400645913521,0.907431
1400645973521,0.908991
1400646033521,0.906586
1400646093521,0.903434
1400646153521,0.907364
1400646213521,0.907374
1400646273521,0.904943
1400646333521,0.910017
1400646393521,0.903765
1400646453521,0.908055
1400646513521,0.906214
1400646573521,0.912046
1400646633521,0.907901
1400646693521,0.907066
1400646753521,0.905766
1400646813521,0.913530
1400646873521,0.913173
1400646933521,0.912829
1400646993521,0.908095
1400647053521,0.913581
1400647113521,0.908101
1400647173521,0.912122
1400647233521,0.902695
1400647293521,0.911911
1400647353521,0.910950
1400647413521,0.909667
1400647473521,0.905451
1400647533521,0.905338
1400647593521,0.903593
1400647653521,0.906084
1400647713521,0.904646
1400647773521,0.901007
1400647833521,0.910949
1400647893521,0.895543
1400647953521,0.897606
1400648013521,0.906271
1400648073521,0.909335
1400648133521,0.897088
1400648193521,0.910825
1400648253521,0.908909
1400648313521,0.903881
1400648373521,0.908437
1400648433530,0.914632
1400648493530,0.913405
1400648553530,0.914041
1400648613530,0.919305
1400648673530,0.918822
1400648733530,0.912357
1400648793530,0.923565
1400648853530,0.918937
1400648913530,0.926080
1400648973530,0.923782
1400649033530,0.914933
1400649093530,0.932588
1400649633530,0.918021
1400649693530,0.921040
1400649753530,0.919767
1400649813530,0.927085
1400649873530,0.924129
1400649933530,0.929720
1400649993530,0.923584
1400650053530,0.916730
1400650113530,0.928123
1400650173530,0.925391
1400650233530,0.926965
1400650293530,0.916357
1400650353530,0.919567
1400650413530,0.912073
1400650473530,0.915045
1400650533530,0.915258
1400650593530,0.915801
1400650653530,0.911389
1400650713530,0.915279
1400650773530,0.902966
1400650833530,0.909849
1400650893530,0.901386
1400650953530,0.899297
1400651013530,0.904126
1400651073530,0.902746
1400651133530,0.900502
1400651193530,0.898766
1400651253530,0.901907
1400651313530,0.909418
1400651373530,0.905837
1400651433530,0.904569
1400651493530,0.899513
1400651553530,0.892365
1400651613530,0.900063
1400651673530,0.895237
1400651733530,0.897210
1400651793530,0.892449
1400651853530,0.891881
1400651913530,0.888408
1400651973530,0.899083
1400652033539,0.893382
1400652093539,0.896835
1400652153539,0.892280
1400652213539,0.893632
1400652273539,0.884832
1400652333539,0.895154
1400652393539,0.886220
1400652453539,0.893060
1400652513539,0.892601
1400652573539,0.890830
1400652633539,0.885336
1400652693539,0.898892
1400652753539,0.891170
1400652813539,0.889565
1400652873539,0.894397
1400652933539,0.889554
1400652993539,0.880128
1400653053539,0.890458
1400653113539,0.891087
1400653173539,0.889449
1400653233539,0.885118
1400653293539,0.885606
1400653353539,0.886621
1400653413539,0.887850
1400653473539,0.889772
1400653533539,0.885710
1400653593539,0.879366
1400653653539,0.883391
1400653713539,0.891453
1400653773539,0.886549
1400653833539,0.884797
1400653893539,0.876872
1400653953539,0.889427
1400654013539,0.882147
1400654073539,0.889892
1400654133539,0.883365
1400654193539,0.887122
1400654253539,0.887328
1400654313539,0.878823
1400654373539,0.882685
1400654433539,0.883399
1400654493539,0.891863
1400654553539,0.888687
1400654613539,0.893341
1400654673539,0.889830
1400654733539,0.894758
1400654793539,0.891752
1400654853539,0.880808
1400654913539,0.889621
1400654973539,0.894337
1400655033539,0.890305
1400655093539,0.882855
1400655153539,0.883665
1400655213539,0.876531
1400655273539,0.886862
1400655333539,0.877033
1400655393539,0.879958
1400655453539,0.890169
1400655513539,0.887105
1400655573539,0.893974
1400655633548,0.883635
1400655693548,0.881014
1400655753548,0.884628
1400655813548,0.890441
1400655873548,0.887674
1400655933548,0.888106
1400655993548,0.890196
1400656053548,0.897371
1400656113548,0.890156
1400656173548,0.889283
1400656233548,0.895779
1400656293548,0.889052
1400656353548,0.910199
1400656413548,0.910092
1400656473548,0.917029
1400656533548,0.921729
1400656593548,0.928343
1400656653548,0.943159
1400656713548,0.949579
1400656773548,0.936576
1400656833548,0.942758
1400656893548,0.949472
1400656953548,0.961289
1400657013548,0.945755
1400657073548,0.952518
1400657133548,0.954785
1400657193548,0.955749
1400657253548,0.949539
1400657313548,0.949315
1400657373548,0.954984
1400657433548,0.955400
1400657493548,0.948492
1400657553548,0.947755
1400657613548,0.944482
1400657673548,0.935059
1400657733548,0.936901
1400657793548,0.930305
1400657853548,0.927504
1400657913548,0.930390
1400657973548,0.925184
1400658033548,0.918861
1400658093548,0.912410
1400658153548,0.923274
1400658213548,0.916277
1400658273548,0.910607
1400658333548,0.913649
1400658393548,0.911940
1400658453548,0.916550
1400658513548,0.912858
1400658573548,0.910978
1400658633548,0.907605
1400658693548,0.913524
1400658753548,0.902280
1400658813548,0.911486
1400658873548,0.906525
1400658933548,0.908221
1400658993548,0.899231
1400659053548,0.894541
1400659113548,0.900578
1400659173548,0.904450
1400659233557,0.892823
1400659293557,0.901152
1400659353557,0.892657
1400659413557,0.896099
1400659473557,0.890753
1400659533557,0.900188
1400659593557,0.897185
1400659653557,0.895186
1400659713557,0.888593
1400659773557,0.888693
1400659833557,0.894242
1400659893557,0.892049
1400659953557,0.890766
1400660013557,0.890983
1400660073557,0.899027
1400660133557,0.890305
1400660193557,0.890012
1400660253557,0.883772
1400660313557,0.890553
1400660373557,0.886748
1400660433557,0.890479
1400660493557,0.891626
1400660553557,0.894000
1400660613557,0.883046
1400660673557,0.895210
1400660733557,0.893476
1400660793557,0.885466
1400660853557,0.899623
1400660913557,0.902867
1400660973557,0.905669
1400661033557,0.905285
1400661093557,0.910519
1400661153557,0.908123
1400661213557,0.902303
1400661273557,0.905625
1400661333557,0.905726
1400661393557,0.899984
1400661453557,0.897774
1400661513557,0.900216
1400661573557,0.888958
1400661633557,0.891316
1400661693557,0.900217
1400661753557,0.899514
1400661813557,0.888378
1400661873557,0.885926
1400661933557,0.894951
1400661993557,0.894317
1400662053557,0.885060
1400662113557,0.882989
1400662173557,0.890104
1400662233557,0.893393
1400662293557,0.892344
1400662353557,0.890441
1400662413557,0.892858
1400662473557,0.891910
1400662533557,0.897469
1400662593557,0.897451
1400662653557,0.899651
1400662713557,0.898980
1400662773557,0.896658
1400662833566,0.898236
1400662893566,0.885645
1400662953566,0.892803
1400663013566,0.889792
1400663073566,0.892447
1400663133566,0.887390
1400663193566,0.887678
1400663253566,0.885845
1400663313566,0.891140
1400663373566,0.891245
1400663433566,0.890798
1400663493566,0.886040
1400663553566,0.891166
1400663613566,0.897744
1400663673566,0.885632
1400663733566,0.881879
1400663793566,0.890157
1400663853566,0.891554
1400663913566,0.891998
1400663973566,0.896165
1400664033566,0.893442
1400664093566,0.890966
1400664153566,0.888092
1400664213566,0.893939
1400664273566,0.886558
1400664333566,0.892761
1400664393566,0.877443
1400664453566,0.887522
1400664513566,0.888503
1400664573566,0.887170
1400664633566,0.890948
1400664693566,0.889197
1400664753566,0.887804
1400664813566,0.882684
1400664873566,0.890648
1400664933566,0.886491
1400664993566,0.891127
1400665053566,0.886653
1400665113566,0.889850
1400665173566,0.895787
1400665233566,0.895266
1400665293566,0.896269
1400665353566,0.887922
1400665413566,0.891781
1400665473566,0.894260
1400665533566,0.890863
1400665593566,0.899301
1400665653566,0.891084
1400665713566,0.896974
1400665773566,0.900117
1400665833566,0.900086
1400665893566,0.899199
1400665953566,0.903067
1400666013566,0.895902
1400666073566,0.905502
1400666133566,0.904801
1400666193566,0.902560
1400666253566,0.911011
1400666313566,0.907177
1400666373566,0.905809
1400666433575,0.905777
1400666493575,0.913271
1400666553575,0.912683
1400666613575,0.913056
1400666673575,0.918081
1400666733575,0.912525
1400666793575,0.917756
1400666853575,0.912538
1400666913575,0.916545
1400666973575,0.909349
1400667033575,0.913771
1400667093575,0.913889
1400667153575,0.913621
1400667213575,0.924866
1400667273575,0.919927
1400667333575,0.912504
1400667393575,0.912779
1400667453575,0.923881
1400667513575,0.922562
1400667573575,0.915550
1400667633575,0.927888
1400667693575,0.924607
1400667753575,0.917758
1400667813575,0.918465
1400667873575,0.916165
1400667933575,0.922607
1400667993575,0.917112
1400668053575,0.917530
1400668113575,0.922827
1400668173575,0.928916
1400668233575,0.923198
1400668293575,0.919187
1400668353575,0.914340
1400668413575,0.914266
1400668473575,0.916050
1400668533575,0.913406
1400668593575,0.913704
1400668653575,0.915852
1400668713575,0.912938
1400668773575,0.916638
1400668833575,0.911699
1400668893575,0.907896
1400668953575,0.908349
1400669013575,0.904474
1400669073575,0.901564
1400669133575,0.910265
1400669193575,0.910240
1400669253575,0.908240
1400669313575,0.901885
1400669373575,0.909218
1400669433575,0.897326
1400669493575,0.904481
1400669553575,0.907627
1400669613575,0.906341
1400669673575,0.903960
1400669733575,0.906904
1400669793575,0.897759
1400669853575,0.906788
1400669913575,0.902846
1400669973575,0.908176
1400670033584,0.907173
1400670093584,0.909310
1400670153584,0.907587
1400670213584,0.907272
1400670273584,0.903627
1400670333584,0.910143
1400670393584,0.901339
1400670453584,0.906582
1400670513584,0.908711
1400670573584,0.904450
1400670633584,0.901254
1400670693584,0.895854
1400670753584,0.895415
1400670813584,0.889290
1400670873584,0.897177
1400670933584,0.888133
1400670993584,0.891847
1400671053584,0.890221
1400671113584,0.888860
1400671173584,0.894867
1400671233584,0.889916
1400671293584,0.898304
1400671353584,0.891807
1400671413584,0.893364
1400671473584,0.888791
1400671533584,0.892476
1400671593584,0.888130
1400671653584,0.885001
1400671713584,0.899070
1400671773584,0.892607
1400671833584,0.888418
1400671893584,0.889929
1400671953584,0.888760
1400672013584,0.892128
1400672073584,0.889214
1400672133584,0.884546
1400672193584,0.889906
1400672253584,0.890998
1400672313584,0.887146
1400672373584,0.890560
1400672433584,0.896268
1400672493584,0.888116
1400672553584,0.889059
1400672613584,0.886719
1400672673584,0.888309
1400672733584,0.892366
1400672793584,0.888261
1400672853584,0.891308
1400672913584,0.892327
1400672973584,0.891833
1400673033584,0.888277
1400673093584,0.892443
1400673153584,0.893029
1400673213584,0.893647
1400673273584,0.894699
1400673333584,0.894339
1400673393584,0.888079
1400673453584,0.883282
1400673513584,0.899063
1400673573584,0.892196
1400673633593,0.898906
1400673693593,0.889411
1400673753593,0.898558
1400673813593,0.902152
1400673873593,0.902744
1400673933593,0.892393
1400673993593,0.891951
1400674053593,0.890693
1400674113593,0.895620
1400674173593,0.898001
1400674233593,0.899187
1400674293593,0.899587
1400674353593,0.893873
1400674413593,0.888510
1400674473593,0.897780
1400674533593,0.901006
1400674593593,0.898670
1400674653593,0.899719
1400674713593,0.897752
1400674773593,0.896547
1400674833593,0.900098
1400674893593,0.894257
1400674953593,0.896688
1400675013593,0.897262
1400675073593,0.892061
1400675133593,0.897686
1400675193593,0.886742
1400675253593,0.885980
1400675313593,0.889056
1400675373593,0.892684
1400675433593,0.900744
1400675493593,0.890000
1400675553593,0.885952
1400675613593,0.899127
1400675673593,0.890584
1400675733593,0.885745
1400675793593,0.889312
1400675853593,0.886634
1400675913593,0.886222
1400675973593,0.883666
1400676033593,0.888148
1400676093593,0.891338
1400676153593,0.888405
1400676213593,0.889090
1400676273593,0.883187
1400676333593,0.887777
1400676393593,0.893338
1400676453593,0.890960
1400676513593,0.891437
1400676573593,0.890937
1400676633593,0.890858
1400676693593,0.884757
1400676753593,0.879123
1400676813593,0.888839
1400676873593,0.893202
1400676933593,0.888368
1400676993593,0.889287
1400677053593,0.893755
1400677113593,0.896540
1400677173593,0.894612
1400677233602,0.897801
1400677293602,0.892586
1400677353602,0.889524
1400677413602,0.885351
1400677473602,0.886920
1400677533602,0.883459
1400677593602,0.895806
1400677653602,0.885742
1400677713602,0.888804
1400677773602,0.892281
1400677833602,0.882950
1400677893602,0.890462
1400677953602,0.893304
1400678013602,0.881074
1400678073602,0.905098
1400678133602,0.893713
1400678193602,0.894243
1400678253602,0.889167
1400678313602,0.892059
1400678373602,0.882223
1400678433602,0.893178
1400678493602,0.886965
1400678553602,0.887003
1400678613602,0.892017
1400678673602,0.890722
1400678733602,0.885746
1400678793602,0.884560
1400678853602,0.890892
1400678913602,0.886334
1400678973602,0.890953
1400679033602,0.886704
1400679093602,0.889424
1400679153602,0.883879
1400679213602,0.897794
1400679273602,0.893193
1400679333602,0.900403
1400679393602,0.888292
1400679453602,0.897031
1400679513602,0.895284
1400679573602,0.880441
1400679633602,0.898115
1400679693602,0.893090
1400679753602,0.883337
1400679813602,0.893350
1400679873602,0.890075
1400679933602,0.891243
1400679993602,0.889794
1400680053602,0.895871
1400680113602,0.889455
1400680173602,0.895359
1400680233602,0.896379
1400680293602,0.890003
1400680353602,0.898960
1400680413602,0.897437
1400680473602,0.888571
1400680533602,0.889674
1400680593602,0.883334
1400680653602,0.889066
1400680713602,0.888294
1400680773602,0.888405
1400680833611,0.887265
1400680893611,0.891448
1400680953611,0.893247
1400681013611,0.896048
1400681073611,0.903664
1400681133611,0.900726
1400681193611,0.893814
1400681253611,0.893448
1400681313611,0.895081
1400681373611,0.901734
1400681433611,0.897712
1400681493611,0.889618
1400681553611,0.898760
1400681613611,0.888574
1400681673611,0.896988
1400681733611,0.892497
1400681793611,0.891935
1400681853611,0.895199
1400681913611,0.895768
1400681973611,0.894056
1400682033611,0.891240
1400682093611,0.896020
1400682153611,0.894362
1400682213611,0.897303
1400682273611,0.890317
1400682333611,0.901613
1400682393611,0.897462
1400682453611,0.888134
1400682513611,0.887698
1400682573611,0.892454
1400682633611,0.897069
1400682693611,0.891997
1400682753611,0.891937
1400682813611,0.892455
1400682873611,0.899572
1400682933611,0.892743
1400682993611,0.887481
1400683053611,0.893960
1400683113611,0.889507
1400683173611,0.891371
1400683233611,0.892946
1400683293611,0.899485
1400683353611,0.889618
1400683413611,0.888597
1400683473611,0.895988
1400683533611,0.884993
1400683593611,0.891167
1400683653611,0.893191
1400683713611,0.890657
1400683773611,0.890971
1400683833611,0.884279
1400683893611,0.890706
1400683953611,0.895321
1400684013611,0.890085
1400684073611,0.896788
1400684133611,0.885518
1400684193611,0.897602
1400684253611,0.879689
1400684313611,0.899647
1400684373611,0.895741
1400684433620,0.893066
1400684493620,0.890518
1400684553620,0.891477
1400684613620,0.891594
1400684673620,0.899117
1400684733620,0.891759
1400684793620,0.898548
1400684853620,0.890046
1400684913620,0.893080
1400684973620,0.898435
1400685033620,0.889073
1400685093620,0.902624
1400685153620,0.894700
1400685213620,0.898982
1400685273620,0.894960
1400685333620,0.896678
1400685393620,0.902642
1400685453620,0.897488
1400685513620,0.900388
1400685573620,0.909013
1400685633620,0.904021
1400685693620,0.904617
1400685753620,0.905279
1400685813620,0.906671
1400685873620,0.906367
1400685933620,0.900867
1400685993620,0.901508
1400686053620,0.909109
1400686113620,0.905027
1400686173620,0.902757
1400686233620,0.906540
1400686293620,0.905782
1400686353620,0.907701
1400686413620,0.907660
1400686473620,0.911898
1400686533620,0.899590
1400686593620,0.900028
1400686653620,0.906818
1400686713620,0.912497
1400686773620,0.901421
1400686833620,0.903869
1400686893620,0.897773
1400686953620,0.904182
1400687013620,0.905197
1400687073620,0.904856
1400687133620,0.898156
1400687193620,0.898033
1400687253620,0.898838
1400687313620,0.897154
1400687373620,0.896576
1400687433620,0.902584
1400687493620,0.900067
1400687553620,0.896095
1400687613620,0.905288
1400687673620,0.897690
1400687733620,0.897506
1400687793620,0.907035
1400687853620,0.897032
1400687913620,0.890338
1400687973620,0.904652
1400688033629,0.894453
1400688093629,0.896937
1400688153629,0.894783
1400688213629,0.896051
1400688273629,0.898577
1400688333629,0.899301
1400688393629,0.900811
1400688453629,0.898763
1400688513629,0.900422
1400688573629,0.898056
1400688633629,0.898256
1400688693629,0.901195
1400688753629,0.898354
1400688813629,0.897921
1400688873629,0.891825
1400688933629,0.901726
1400688993629,0.901332
1400689053629,0.898070
1400689113629,0.893654
1400689173629,0.903822
1400689233629,0.898174
1400689293629,0.885321
1400689353629,0.896155
1400689413629,0.907099
1400689473629,0.895963
1400689533629,0.904162
1400689593629,0.900814
1400689653629,0.895321
1400689713629,0.894596
1400689773629,0.902759
1400689833629,0.903047
1400689893629,0.903096
1400689953629,0.897141
1400690013629,0.896865
1400690073629,0.896493
1400690133629,0.897819
1400690193629,0.894727
1400690253629,0.898116
1400690313629,0.895509
1400690373629,0.896223
1400690433629,0.896657
1400690493629,0.892627
1400690553629,0.903546
1400690613629,0.898885
1400690673629,0.892922
1400690733629,0.894589
1400690793629,0.892186
1400690853629,0.894310
1400690913629,0.900351
1400690973629,0.888373
1400691033629,0.894549
1400691093629,0.892523
1400691153629,0.887955
1400691213629,0.899833
1400691273629,0.898400
1400691333629,0.897214
1400691393629,0.887749
1400691453629,0.893236
1400691513629,0.884352
1400691573629,0.886723
1400691633638,0.900423
1400691693638,0.897485
1400691753638,0.898957
1400691813638,0.883861
1400691873638,0.894337
1400691933638,0.893846
1400691993638,0.888062
1400692053638,0.887902
1400692113638,0.888954
1400692173638,0.884641
1400692233638,0.885987
1400692293638,0.882774
1400692353638,0.890835
1400692413638,0.895627
1400692473638,0.896455
1400692533638,0.885269
1400692593638,0.889980
1400692653638,0.884638
1400692713638,0.885329
1400692773638,0.897065
1400692833638,0.882155
1400692893638,0.890947
1400692953638,0.884442
1400693013638,0.888450
1400693073638,0.883501
1400693133638,0.890980
1400693193638,0.893345
1400693253638,0.887744
1400693313638,0.884964
1400693373638,0.889334
1400693433638,0.894992